Theta_e
316 316 316 315 316 316 316 317 317 317 318 318 318 318 318 319 319 319 319 320 320 320 320 320 320 320 320 320 320 320 319 315 310 306 308 308 316 333 347 346 343 345 363 349 344 341 338 336 334 341 340 338 337 335 340 341 343 339 327 322 320 321 317 315 312 312 314 315 324 327 329 328 325 329 333 337 333 333 333 333 337 340 340 341 343 346 347 348
317 316 316 316 316 316 316 317 316 317 317 318 318 318 318 319 319 319 319 320 319 319 319 319 319 320 319 319 320 321 318 313 307 305 305 317 335 335 341 348 349 363 353 342 338 336 334 331 333 338 337 333 339 334 341 336 343 331 319 319 318 317 322 319 315 315 315 315 325 328 330 329 328 330 332 328 327 330 330 332 335 335 339 342 344 345 345 346
317 316 316 316 315 316 316 316 317 316 317 317 318 318 318 318 319 319 319 319 319 319 319 319 319 319 319 319 320 320 316 309 308 304 309 333 338 340 339 348 356 360 341 338 337 335 333 331 333 336 334 331 331 330 338 331 339 336 324 314 317 323 319 317 317 316 318 320 325 326 328 329 329 331 334 327 327 330 328 328 332 333 334 338 341 344 344 345
316 316 315 315 315 316 316 316 316 317 317 317 317 318 318 318 318 318 318 319 319 319 319 318 319 319 319 320 320 317 312 310 298 302 305 344 355 353 344 347 360 354 339 338 335 334 335 334 334 334 330 326 326 330 330 332 333 334 330 323 320 325 323 324 325 323 321 319 324 326 328 326 330 331 330 328 326 326 328 333 331 332 335 338 341 343 344 344
315 315 315 315 315 316 316 316 317 317 317 317 317 317 318 318 318 318 318 318 318 318 318 318 319 319 319 319 319 316 311 295 297 302 307 351 356 357 352 347 360 343 338 334 331 329 332 331 332 331 328 322 322 325 325 330 336 326 330 332 328 325 317 321 319 321 318 318 322 326 325 325 332 331 329 329 322 322 328 333 334 337 339 339 340 342 344 343
315 315 315 315 315 316 316 316 316 316 316 316 317 317 317 317 317 318 318 318 318 318 318 318 318 319 319 319 317 313 300 290 303 305 355 352 353 359 353 348 360 336 335 329 325 326 328 328 330 325 321 320 320 318 320 327 330 319 323 326 328 328 325 327 323 319 318 320 323 325 327 330 329 327 330 329 325 327 333 336 337 339 341 342 343 343 342 342
315 315 315 315 316 315 315 315 315 316 316 316 316 316 317 317 317 317 317 317 317 318 318 318 318 318 318 319 315 315 297 299 307 306 340 345 354 354 352 354 358 332 332 326 325 324 325 326 327 324 320 318 317 320 320 323 327 323 319 321 321 322 321 324 322 322 317 320 323 327 331 328 327 323 330 328 329 331 335 338 339 341 342 343 341 342 342 342
315 315 315 315 315 315 315 315 315 315 316 315 316 317 316 317 316 316 317 317 317 318 319 318 318 318 319 315 311 297 300 300 307 310 331 354 353 351 351 345 333 330 329 327 325 323 325 324 321 323 318 315 313 317 319 318 321 320 319 322 323 324 324 323 322 318 317 317 321 328 327 327 328 327 329 327 330 333 336 339 340 341 341 341 341 341 342 342
315 315 315 314 314 315 315 315 315 315 315 315 316 316 316 316 315 316 317 317 317 318 319 319 318 318 319 315 303 294 296 304 307 308 310 343 343 341 337 330 327 326 326 328 327 326 324 322 321 321 312 314 316 314 315 315 312 319 320 322 322 322 321 319 315 313 313 316 320 325 325 328 329 330 326 328 330 335 338 339 339 340 339 339 340 341 341 341
314 314 314 314 315 314 314 315 315 315 315 316 315 315 315 315 315 316 316 317 318 318 318 318 318 318 316 312 303 293 301 305 308 317 337 342 338 334 330 330 326 321 322 324 322 325 323 321 322 321 311 311 313 311 313 315 311 313 314 318 319 321 321 318 313 311 310 312 319 322 323 325 326 328 319 329 332 337 337 337 339 338 337 338 339 340 342 342
314 314 314 314 314 314 314 314 315 315 315 315 315 315 315 315 315 316 317 316 317 318 318 318 319 316 311 312 296 294 304 311 315 330 340 338 333 328 329 329 326 320 321 320 319 325 323 320 323 316 314 311 310 309 312 311 314 314 314 313 312 311 309 308 306 306 307 310 318 322 322 325 324 325 323 327 334 337 335 336 337 337 337 338 339 339 341 341
313 313 313 313 313 313 314 314 314 314 315 315 314 314 315 315 315 315 316 316 317 318 318 319 318 316 315 308 301 299 306 310 314 328 331 327 329 329 329 331 327 322 319 318 319 319 318 316 318 313 307 312 306 310 309 313 312 309 307 302 303 303 303 304 304 306 308 309 318 322 317 317 318 320 324 331 335 336 335 335 336 336 337 337 338 339 339 340
313 313 313 313 313 313 314 314 314 314 314 314 314 313 314 314 314 314 316 316 317 317 318 319 319 316 312 295 302 308 309 308 308 308 308 310 311 323 327 334 328 325 320 319 318 320 318 314 316 311 311 310 307 304 311 313 309 308 307 301 301 300 300 305 306 306 308 313 319 322 307 312 317 320 328 333 334 335 333 333 335 335 336 337 338 338 339 340
313 313 313 313 313 313 313 313 314 313 313 314 313 313 313 312 313 315 318 320 319 317 318 321 317 314 308 297 303 308 311 311 310 310 309 312 310 310 319 331 331 326 322 318 314 318 319 315 314 313 317 312 308 313 310 309 308 304 305 302 297 297 296 301 310 313 311 314 321 322 308 310 316 319 329 333 335 333 331 333 334 334 335 336 337 337 338 339
312 313 313 313 313 313 313 313 313 313 313 313 312 312 311 311 314 321 322 319 318 319 320 321 317 312 300 299 307 312 328 314 311 310 311 308 307 307 315 324 329 327 323 319 313 319 319 317 315 311 307 312 313 307 302 300 297 299 299 295 292 295 298 301 303 314 312 313 319 317 307 309 313 317 329 333 334 333 331 332 333 334 335 335 336 337 337 339
312 312 313 313 313 313 312 313 312 313 313 312 311 311 312 313 320 321 320 319 320 321 319 314 314 312 304 294 299 335 322 312 310 315 313 310 307 306 313 319 323 324 321 319 317 319 318 317 311 310 309 309 307 301 300 298 298 295 299 294 294 294 296 298 303 311 315 313 314 315 305 309 311 320 329 332 332 332 330 331 333 333 334 335 336 336 337 338
312 312 312 313 313 313 313 312 312 312 311 311 310 311 312 316 323 323 323 322 320 319 316 311 314 316 294 301 308 306 304 312 318 317 316 313 310 308 316 315 314 316 317 316 314 313 314 314 310 310 310 303 301 302 296 294 294 295 294 294 296 297 296 295 299 304 313 313 309 312 308 307 315 324 328 331 332 330 329 331 332 333 334 335 336 336 337 337
312 313 312 313 313 313 312 312 312 311 310 309 309 309 308 316 322 322 321 321 320 319 318 320 313 305 298 304 300 302 309 311 316 317 316 316 312 309 312 310 311 314 313 311 312 309 309 308 306 300 300 304 300 298 295 293 297 294 295 293 294 296 295 297 298 301 312 312 310 310 309 308 320 324 327 330 331 330 329 330 332 332 333 334 335 336 336 337
312 312 312 311 312 312 312 312 311 310 309 310 310 311 315 316 317 315 315 316 306 299 296 303 300 294 292 299 304 306 307 312 315 315 312 311 311 309 309 309 313 311 307 306 306 309 305 304 303 299 298 298 300 300 298 297 297 298 297 295 294 294 295 294 298 300 312 308 308 308 308 308 319 322 326 329 331 328 329 330 331 332 333 333 334 335 336 336
312 311 312 312 312 312 312 311 310 309 308 306 302 302 303 297 296 295 306 300 297 300 301 304 308 306 306 306 306 309 313 314 311 311 314 316 310 306 306 307 306 307 304 302 300 305 305 300 297 297 299 298 300 301 301 301 301 297 296 296 295 295 296 297 298 303 309 310 308 308 309 309 318 322 325 327 329 329 328 328 329 330 331 332 333 334 335 336
312 312 312 312 312 311 311 310 310 308 309 304 300 298 293 293 290 289 294 296 299 300 299 300 303 306 305 307 309 308 305 305 313 310 315 317 309 308 303 305 301 301 301 303 302 303 306 299 299 299 297 299 299 300 300 300 299 299 298 296 296 295 296 299 300 301 306 309 307 308 308 309 316 322 324 327 328 326 327 328 329 329 331 332 332 333 334 336
312 312 312 312 312 311 310 310 308 308 308 302 299 297 298 298 300 301 296 290 297 300 300 300 302 301 306 307 310 309 307 303 304 306 309 313 306 307 302 303 300 299 299 300 300 296 297 298 300 300 298 299 299 300 300 300 299 297 297 297 295 297 298 299 301 303 304 310 305 308 308 308 314 321 324 325 326 328 329 329 329 330 330 331 332 333 334 335
312 312 312 312 311 310 309 308 307 307 301 300 296 300 298 302 304 304 300 295 292 299 299 299 298 299 301 305 306 309 301 300 299 303 306 313 304 307 302 301 299 300 298 300 299 296 293 296 299 299 299 299 298 298 298 298 298 297 295 294 295 298 297 292 295 300 303 309 304 307 307 307 316 321 323 326 326 327 329 330 330 331 330 330 331 333 333 333
313 312 312 311 310 309 309 307 306 303 300 299 298 301 303 304 304 303 298 291 292 295 298 300 301 300 300 300 305 306 301 300 302 302 312 311 304 304 302 302 299 298 298 299 300 298 297 296 300 299 299 300 298 296 297 296 295 296 297 295 295 296 296 297 296 299 301 302 308 306 306 303 312 316 319 324 327 327 327 328 329 330 331 332 333 334 334 333
312 312 312 311 310 309 306 305 298 299 301 299 298 304 303 304 304 304 297 293 292 294 301 301 303 302 302 309 309 303 303 302 304 306 310 311 306 303 302 303 299 297 299 298 298 298 298 299 299 299 298 298 298 296 296 297 295 295 296 298 298 298 297 297 298 298 296 294 298 305 296 298 305 314 318 322 323 324 326 325 326 328 329 330 330 331 333 334
312 312 312 310 310 308 306 296 296 300 299 295 300 302 304 304 304 305 296 289 284 292 299 294 303 298 308 301 306 304 304 299 306 307 311 312 312 308 303 300 302 297 299 297 298 297 299 299 299 298 298 297 297 297 296 298 296 293 296 299 299 298 297 297 297 297 292 291 296 307 297 292 298 308 315 319 321 322 325 324 326 327 328 329 330 331 331 332
312 311 311 310 310 307 298 293 299 301 293 295 302 303 303 304 305 303 291 285 285 296 293 300 300 299 305 302 305 304 291 294 305 308 309 315 308 310 302 298 300 302 301 299 295 296 299 298 298 297 297 297 296 295 297 299 294 294 296 298 298 297 297 296 296 296 293 298 300 300 302 295 294 303 313 319 319 320 321 323 324 326 327 328 330 331 331 332
312 311 310 309 308 307 299 299 299 296 297 301 303 303 304 304 305 302 291 281 282 300 296 295 300 307 303 303 305 300 297 301 297 302 309 311 311 305 304 299 300 299 301 300 292 298 300 296 299 297 296 295 296 298 297 299 298 296 297 297 296 296 296 296 296 294 294 295 291 294 301 296 294 301 309 316 315 317 319 321 323 324 327 328 329 330 331 332
311 310 310 309 307 306 302 298 298 296 301 303 303 304 305 305 301 293 286 281 295 296 307 297 306 302 298 302 300 300 296 299 296 299 307 310 311 305 302 300 301 300 301 301 297 297 300 300 300 301 298 296 297 298 299 300 297 298 297 299 299 297 296 296 294 294 295 292 290 293 296 294 290 293 305 312 314 315 317 321 323 324 325 327 328 330 331 332
311 310 309 308 305 301 298 300 298 302 304 304 304 304 305 302 294 288 283 279 298 292 299 299 297 293 297 295 295 298 295 295 297 301 305 305 307 308 305 304 300 298 297 300 300 298 299 307 306 301 298 301 299 299 300 300 302 297 300 298 298 297 296 296 294 294 292 288 291 295 295 296 290 293 303 305 309 315 318 320 322 324 325 326 328 329 330 331
309 309 308 308 299 301 301 296 299 302 304 305 305 304 302 292 288 281 279 287 295 295 296 294 294 297 294 292 289 294 295 295 296 300 298 302 302 304 301 300 300 297 296 295 297 299 299 302 300 300 305 302 301 298 300 302 301 299 295 295 295 292 292 295 292 293 287 287 290 295 295 296 290 291 300 309 314 317 318 318 320 322 323 324 326 328 330 331
308 307 308 305 304 305 297 296 302 305 304 305 305 300 291 283 283 281 282 296 289 291 290 290 294 293 293 294 292 292 292 293 295 297 296 298 299 299 299 298 298 291 291 292 293 296 296 297 300 300 309 303 299 298 297 299 298 298 294 293 290 283 287 285 287 286 286 286 289 292 295 292 294 294 299 307 311 314 319 320 321 322 323 324 325 327 329 330
307 306 306 306 305 300 302 304 305 304 304 304 302 296 286 280 277 284 286 289 288 293 291 296 293 293 293 292 290 294 294 293 294 295 296 297 298 300 300 301 300 298 289 294 291 291 293 298 299 300 302 306 302 296 294 294 295 296 294 291 288 284 283 280 281 282 282 287 291 291 295 293 293 299 302 305 312 315 317 320 322 323 323 324 325 326 328 329
306 306 302 304 304 303 305 307 306 305 303 305 296 291 285 278 279 297 288 288 289 295 295 293 294 293 293 291 292 293 291 293 294 293 296 294 296 295 298 298 300 296 291 291 292 291 286 288 296 298 296 303 303 301 300 293 294 296 295 294 291 288 283 280 281 283 285 286 290 292 291 286 292 294 303 306 312 316 317 319 321 323 323 324 325 326 327 328
305 303 302 302 301 303 304 305 304 305 304 297 290 285 280 280 284 282 285 288 290 294 292 296 291 291 290 290 293 294 295 291 295 293 293 294 293 294 296 297 297 299 294 291 292 292 292 292 292 301 301 303 301 304 304 297 295 295 296 296 290 292 289 285 284 283 284 285 287 290 288 292 296 301 308 307 310 315 318 318 319 319 322 322 322 322 324 326
303 301 302 298 301 303 303 305 302 303 300 293 287 281 280 283 281 287 287 295 293 290 292 292 291 287 287 286 292 293 297 292 294 293 290 293 295 295 297 298 298 299 296 295 293 290 291 292 297 299 300 302 304 304 302 303 293 293 295 293 295 295 294 291 293 290 290 287 285 290 293 294 298 301 305 306 307 310 315 316 317 317 318 320 319 321 323 325
300 300 296 299 300 303 302 302 303 301 299 293 285 280 286 287 289 292 296 293 294 294 290 285 286 286 285 285 286 291 293 294 292 292 287 291 292 293 297 298 301 300 300 299 293 294 292 289 295 298 296 301 303 305 303 304 298 293 293 294 295 298 297 293 286 287 287 282 284 288 290 290 295 291 302 306 305 307 310 314 316 317 318 317 318 319 321 323
298 297 299 299 301 303 303 303 301 301 297 290 284 291 292 289 296 294 296 295 295 294 288 286 286 290 286 287 285 290 293 289 290 291 288 290 289 297 295 296 300 301 301 300 297 294 296 291 292 298 300 300 301 302 299 302 300 299 294 298 298 287 289 288 287 285 282 283 282 284 289 291 293 294 300 303 305 306 308 311 313 315 317 317 318 319 320 322
296 294 290 296 302 303 303 303 300 299 293 286 285 285 292 292 296 294 297 296 296 294 288 287 286 289 290 287 289 291 292 287 291 290 288 289 288 295 296 296 296 299 300 300 298 295 297 291 288 295 298 299 300 299 293 297 300 301 297 297 297 293 292 287 290 285 287 282 284 282 288 289 295 296 301 305 306 308 308 309 312 315 317 318 319 320 320 320
295 291 288 299 302 303 303 302 301 295 289 283 287 287 294 291 295 297 297 296 293 292 289 290 291 288 290 290 290 287 291 291 291 290 291 290 290 297 294 298 295 298 300 300 298 300 294 294 289 290 296 298 294 296 297 297 295 295 293 292 295 297 294 296 292 292 287 283 282 283 283 285 291 298 303 306 308 309 309 310 312 314 317 318 320 321 321 321
298 291 289 300 302 303 301 296 291 289 289 292 293 290 290 290 294 295 296 297 295 298 294 292 292 288 289 289 289 292 290 290 291 288 291 291 291 287 296 295 297 297 300 297 296 297 295 291 291 293 293 292 294 299 301 300 300 297 297 294 294 292 290 288 286 290 290 289 282 282 286 288 291 302 306 307 309 310 311 311 312 314 316 318 320 321 322 322
292 284 287 299 302 302 295 288 288 290 288 286 286 290 289 298 293 293 294 295 293 291 297 294 293 292 290 290 291 291 290 289 290 290 291 290 293 293 294 297 297 299 297 295 299 299 302 294 293 292 294 293 296 300 303 304 303 301 299 297 296 292 290 289 284 287 290 289 292 287 285 291 297 302 306 307 308 309 311 312 312 314 315 317 319 320 322 323
291 288 298 300 302 299 290 285 289 288 286 289 294 293 294 293 292 294 292 293 291 293 291 291 291 290 291 290 291 291 293 290 292 289 292 293 293 294 295 297 298 299 303 301 305 304 308 292 292 293 294 295 297 297 298 299 301 299 299 298 296 294 295 295 292 288 291 288 291 289 288 288 295 303 305 307 308 308 310 310 312 314 314 316 317 319 321 322
292 291 293 300 302 297 289 282 282 284 287 290 290 289 293 293 292 291 291 292 291 291 290 290 291 293 290 293 292 290 294 287 293 292 291 294 292 297 296 296 298 296 300 301 299 301 294 294 291 286 287 290 293 295 295 297 298 296 297 299 298 299 297 293 291 291 291 290 292 288 287 290 300 307 307 306 306 306 308 308 311 312 313 314 316 318 320 322
293 293 293 296 301 295 287 289 285 285 286 286 286 285 288 290 293 293 292 291 294 293 291 289 291 292 291 293 292 293 293 291 289 293 293 294 293 297 296 296 297 296 301 307 308 304 295 293 291 287 285 283 283 285 286 290 292 294 296 298 300 298 296 293 293 290 288 290 292 289 288 288 294 300 304 304 305 306 307 308 311 310 312 313 314 317 320 321
288 282 290 290 293 292 292 293 290 288 286 286 284 285 287 285 291 295 294 292 294 293 293 293 293 293 290 290 288 290 290 293 290 289 290 290 291 294 295 295 296 296 305 308 306 301 296 296 293 291 288 286 288 290 293 297 293 294 295 297 298 299 299 297 294 290 290 288 290 292 292 292 297 301 301 303 304 306 307 306 308 311 311 312 314 316 319 320
292 284 286 283 291 289 288 289 288 289 285 289 280 285 284 286 289 290 296 290 294 292 292 292 292 289 288 288 287 287 290 289 291 291 290 289 291 293 295 295 295 302 307 302 304 299 294 291 294 294 293 293 295 294 297 298 294 295 295 296 297 297 298 297 294 293 293 289 290 294 293 295 295 297 298 300 302 302 302 302 303 308 311 312 316 318 325 320
285 289 291 292 286 282 284 285 289 288 289 289 284 288 285 286 287 285 291 292 293 295 290 291 292 291 290 288 288 284 287 286 288 287 290 290 290 292 291 294 294 300 301 295 300 296 292 290 293 295 295 296 296 296 297 296 296 296 296 297 296 296 297 296 296 296 295 295 293 295 294 295 296 297 299 300 302 304 304 304 304 307 308 310 311 313 315 318
292 291 291 296 286 288 288 288 290 288 287 287 287 288 285 285 284 287 288 288 289 290 292 285 289 291 290 291 289 285 286 282 283 288 287 288 289 289 287 291 294 296 295 294 294 297 294 289 292 295 293 294 295 296 297 295 295 295 296 296 298 297 296 297 298 297 297 297 298 296 296 296 298 299 299 300 301 302 303 307 310 310 308 310 311 312 313 316
288 288 287 293 291 289 289 289 289 287 283 288 284 285 286 285 284 287 289 288 285 287 293 288 289 290 291 291 290 286 288 288 287 285 290 289 289 290 288 290 290 293 294 292 293 295 292 289 297 294 291 292 294 296 295 295 294 293 295 296 297 298 298 298 298 298 298 297 298 294 297 297 299 300 302 303 303 306 308 305 306 307 308 309 310 311 313 315
294 297 296 289 286 288 290 289 286 285 283 285 283 286 287 286 285 287 287 291 288 287 289 287 290 289 291 291 290 289 291 291 291 291 292 291 287 292 289 289 293 289 291 291 294 294 294 288 293 292 288 288 293 294 295 295 295 293 293 296 296 296 295 297 296 298 296 295 296 294 293 295 300 301 301 301 302 304 304 304 303 304 307 311 311 312 313 315
298 302 298 294 285 290 286 286 286 286 281 285 286 286 286 285 288 289 285 291 292 292 291 290 290 289 288 289 288 290 294 294 294 294 295 296 296 295 295 295 294 291 289 291 293 290 291 291 289 288 286 285 292 294 294 294 292 292 293 296 298 297 297 298 299 300 301 300 296 294 296 299 301 304 302 303 301 301 302 305 307 309 310 311 312 313 313 314
Wind_Speed
22 22 23 23 23 24 24 24 24 24 22 21 21 22 21 20 21 21 21 21 21 21 21 20 21 20 21 19 18 17 15 10 10 1 2 18 11 12 14 10 16 13 15 11 12 14 9 7 8 6 7 6 2 5 4 5 1 3 2 1 4 6 4 4 2 4 1 2 5 9 10 11 8 5 4 8 5 6 6 3 3 7 6 8 10 16 16 15
21 22 23 24 24 24 24 23 22 21 21 22 23 22 22 21 22 21 22 21 21 21 20 21 20 21 20 18 18 16 12 7 8 8 18 19 9 13 15 10 15 17 16 13 17 13 14 9 8 10 7 5 1 2 10 3 5 4 1 3 7 4 6 5 4 4 0 1 5 8 8 12 11 11 6 6 5 8 6 2 5 7 9 11 14 16 17 17
22 23 23 24 24 24 23 21 21 23 24 24 23 23 23 24 24 24 22 22 21 21 21 19 20 20 19 18 14 13 9 6 3 11 17 9 21 18 15 14 18 21 16 11 14 15 15 13 8 10 4 4 2 5 9 4 8 5 2 5 8 5 3 5 4 4 1 5 8 5 4 5 8 7 6 5 10 7 10 10 5 9 11 14 15 17 17 16
22 22 23 23 24 23 25 25 25 25 25 25 24 23 23 23 23 23 23 23 22 21 20 20 20 19 18 17 14 9 2 4 5 5 2 5 4 6 16 18 21 19 10 14 12 14 11 13 10 10 6 3 3 3 7 5 5 4 5 7 4 5 7 8 9 9 6 5 10 8 4 5 8 7 7 11 9 6 6 11 19 15 16 17 18 18 17 17
22 22 23 24 24 25 24 26 26 26 25 24 25 24 25 24 24 23 22 21 21 20 20 19 19 17 17 13 12 3 1 4 5 2 2 3 3 1 13 19 21 13 12 10 10 8 13 15 10 5 3 6 3 4 5 7 7 2 11 9 6 4 3 7 3 4 4 5 10 7 10 8 5 4 7 17 11 9 13 16 9 18 19 20 20 18 17 19
23 24 24 24 25 25 26 26 26 26 26 26 25 25 25 24 23 22 22 21 21 21 19 18 17 16 16 14 6 2 0 2 1 4 6 6 4 4 15 21 20 10 11 13 10 10 12 9 12 7 5 4 8 10 2 9 6 7 4 7 6 8 10 5 4 3 4 3 6 10 10 9 11 7 9 16 12 5 7 13 13 17 21 20 19 19 18 19
24 25 24 25 25 26 26 27 27 25 26 25 25 26 26 25 24 23 22 22 21 20 18 17 15 15 13 12 2 2 2 9 8 8 4 9 6 7 16 19 18 10 11 11 8 10 10 12 11 10 5 4 3 7 3 5 9 8 7 3 6 6 12 12 12 4 1 8 10 5 7 13 10 9 9 13 7 2 6 10 12 13 14 18 18 18 21 20
25 24 24 26 26 27 27 27 27 26 25 25 25 26 26 26 25 24 23 22 21 19 17 16 14 12 9 5 0 1 2 11 17 5 9 7 8 13 17 11 13 9 12 13 13 12 13 14 13 5 5 8 3 9 4 4 4 9 11 5 8 8 11 12 9 7 5 8 6 9 11 12 18 10 11 14 5 4 8 12 13 15 16 15 17 17 16 16
25 26 26 27 27 27 27 28 28 27 27 26 26 27 29 30 29 28 27 23 21 18 16 14 11 9 4 2 1 3 11 8 6 7 2 8 9 12 18 8 7 12 11 9 11 12 14 10 9 9 5 6 4 1 2 6 6 7 11 4 6 8 6 6 6 7 8 4 7 10 12 13 9 7 12 11 3 7 11 12 13 16 16 16 17 17 17 17
26 26 27 28 27 28 29 29 28 28 28 27 27 29 28 28 27 26 25 22 20 18 15 12 9 6 4 2 1 5 8 7 4 2 9 11 9 10 7 13 13 8 8 8 7 10 9 8 11 7 2 3 4 6 1 4 5 3 3 8 10 12 10 7 8 11 7 5 10 13 13 11 6 8 6 4 8 11 13 14 12 16 18 16 15 14 14 15
27 27 28 28 28 29 30 31 30 29 29 29 29 29 27 29 28 27 25 23 20 18 15 11 8 5 3 2 5 11 6 4 2 7 11 10 11 8 5 10 10 11 10 9 11 13 8 11 9 5 1 5 1 3 6 4 3 7 7 7 9 8 9 9 7 13 3 4 13 15 14 8 6 4 11 9 12 15 15 14 15 13 15 15 15 14 13 12
27 27 27 29 28 30 31 31 30 30 30 31 30 29 31 30 28 28 25 23 20 17 14 11 10 5 1 3 8 12 2 3 3 6 7 6 4 7 8 10 13 10 10 11 9 11 10 10 10 5 5 3 5 1 4 8 3 4 3 5 7 4 6 6 7 7 5 6 12 8 8 5 6 16 6 9 12 15 16 15 16 14 13 13 14 12 11 12
27 27 28 28 29 31 30 31 30 31 32 32 31 31 29 28 28 28 25 18 11 8 9 12 11 6 3 3 13 12 11 5 2 5 5 2 2 2 7 10 12 9 8 12 12 11 6 7 10 8 5 4 2 4 1 1 2 2 1 3 6 4 7 8 2 5 4 2 12 13 3 11 17 8 10 12 14 13 13 13 14 12 11 11 13 12 11 11
27 27 27 28 29 30 30 30 30 31 31 31 32 30 28 28 28 24 19 12 5 6 8 15 8 6 3 9 6 3 10 10 7 7 12 2 4 2 3 5 9 7 3 1 2 1 2 1 6 6 1 3 2 3 5 1 1 2 3 1 4 3 7 4 1 1 3 3 17 13 9 10 13 8 9 14 17 18 16 14 14 13 12 11 12 12 13 13
26 28 28 29 30 29 28 29 29 30 30 30 31 29 27 27 23 16 8 3 7 12 15 14 6 6 1 10 5 12 11 3 4 11 3 5 5 1 4 5 7 9 7 4 1 3 6 3 2 1 2 2 2 4 5 2 2 1 4 5 3 4 8 3 5 5 4 1 10 11 6 10 10 10 12 14 15 17 16 15 15 14 14 13 12 13 12 12
25 28 30 30 29 30 29 28 27 29 30 30 29 29 25 19 13 8 8 10 14 17 11 8 2 1 1 10 3 2 5 2 6 10 6 7 7 6 6 7 3 3 2 1 2 4 3 7 4 6 3 0 3 3 1 3 3 2 6 4 2 2 7 8 2 3 7 7 7 14 6 4 2 6 12 13 16 16 14 15 15 15 15 14 13 12 11 11
25 27 28 31 31 31 31 30 28 30 29 29 29 24 20 14 3 10 14 14 10 7 2 3 6 3 1 3 2 0 4 4 3 1 3 7 10 7 10 5 3 5 3 3 5 4 2 3 1 1 1 4 3 5 3 6 6 3 0 5 3 6 3 5 7 2 4 12 8 13 6 2 2 12 13 13 16 15 13 15 15 14 12 12 10 11 12 13
26 26 28 27 29 29 30 29 29 29 32 32 27 22 14 12 1 7 7 6 3 2 1 1 4 1 11 2 4 2 1 4 1 3 4 3 9 7 7 4 2 7 6 2 1 4 2 2 2 4 1 7 5 7 11 13 9 5 4 3 5 2 4 8 2 1 3 5 12 13 13 4 0 8 14 16 15 16 16 16 16 15 13 13 13 12 12 13
29 27 28 29 29 31 30 28 29 29 30 30 21 15 7 2 3 2 0 1 1 1 0 2 4 6 3 1 3 7 3 4 5 2 2 7 4 4 2 5 8 11 4 4 2 8 1 1 1 3 11 9 10 10 11 3 7 6 7 6 2 4 5 3 5 4 6 5 6 7 14 10 4 6 9 11 13 15 12 9 9 11 12 12 12 12 12 13
28 28 29 28 29 29 30 27 28 28 28 17 13 7 2 5 3 1 3 5 4 7 6 2 9 7 15 11 5 4 4 3 1 3 1 2 10 5 4 3 2 3 7 7 2 6 5 8 10 13 8 5 4 7 5 4 1 2 2 1 4 4 6 3 4 7 2 2 8 10 10 4 7 11 13 14 12 10 9 12 12 12 13 13 13 14 15 15
27 29 28 27 26 27 26 29 27 26 22 10 10 3 6 4 4 6 11 16 15 13 14 17 16 16 15 2 1 6 6 4 1 2 0 2 5 13 4 6 4 6 6 7 7 1 7 9 13 7 6 8 7 6 5 5 4 4 4 5 8 4 10 2 3 2 1 4 4 5 5 7 7 6 9 10 13 16 15 14 14 15 15 14 16 16 16 15
28 28 28 25 26 27 27 29 28 22 13 6 5 6 3 3 1 5 2 11 5 12 13 20 13 16 14 17 13 2 4 4 14 11 6 5 5 11 4 9 10 12 5 4 3 3 8 14 8 8 7 6 6 6 7 8 6 4 7 6 5 9 5 4 5 6 3 3 7 2 8 9 6 7 9 14 18 17 17 19 21 20 17 14 15 16 14 10
30 29 27 27 27 28 29 30 26 15 5 9 7 3 3 2 5 5 3 7 17 12 15 16 12 21 20 11 7 8 8 12 14 6 4 7 4 9 9 9 11 8 5 7 12 7 7 9 8 8 8 7 4 6 6 5 4 6 5 4 9 1 2 5 3 1 2 4 2 5 8 4 1 4 10 11 13 11 13 13 11 13 16 17 19 18 17 16
30 31 29 28 29 28 28 31 17 6 9 10 3 1 4 3 5 7 2 5 10 3 13 13 16 12 14 8 7 14 15 6 7 15 5 9 10 4 7 14 12 8 12 12 14 13 10 3 9 9 10 10 8 4 6 6 7 5 7 5 6 4 4 6 5 3 2 3 1 2 2 5 3 5 6 9 9 6 7 8 9 10 12 12 9 10 12 16
30 30 32 29 29 30 32 21 5 8 12 6 5 1 5 6 6 5 1 6 3 9 5 8 6 6 3 5 10 13 9 2 10 5 5 12 9 6 7 4 5 12 12 11 7 9 10 7 5 11 9 8 8 7 8 8 8 5 6 11 9 3 4 2 2 3 4 7 2 3 2 4 5 11 14 9 9 13 9 11 14 13 12 12 13 15 13 12
29 29 32 27 28 29 28 5 5 11 14 3 1 5 6 8 6 7 1 1 7 6 1 3 5 3 5 3 8 5 8 7 12 9 4 9 7 6 4 5 7 16 14 9 9 5 8 4 7 7 9 8 9 10 6 9 8 5 7 10 8 5 4 2 1 1 1 4 5 1 8 6 3 6 9 9 13 16 11 14 16 14 13 14 15 14 14 15
29 28 29 26 25 25 11 3 5 11 6 4 12 12 11 8 7 6 0 3 3 4 5 0 0 1 3 5 9 8 4 8 1 9 7 7 14 3 10 6 3 0 4 2 2 10 6 9 8 6 8 11 9 12 7 11 6 9 3 7 7 7 7 5 5 6 6 2 6 2 2 4 5 7 8 11 15 16 16 16 15 15 16 16 16 15 15 15
30 27 26 27 24 18 4 4 9 8 4 11 11 11 11 8 8 3 0 3 3 2 0 0 2 1 1 7 9 9 2 1 2 5 12 5 7 4 7 11 13 14 10 8 17 0 13 9 14 13 9 8 12 8 6 11 9 3 5 7 4 7 6 5 6 6 4 4 9 5 4 3 5 7 4 10 10 12 16 18 18 17 17 17 17 17 17 17
26 25 26 25 26 19 1 1 4 7 7 8 11 11 8 7 3 1 1 1 4 2 2 3 5 2 3 3 6 7 4 1 2 1 7 4 7 5 9 8 10 8 8 17 15 2 4 14 16 15 10 11 5 6 11 13 10 5 3 1 2 2 2 5 6 5 2 3 10 7 6 7 7 6 1 8 13 16 19 21 20 18 19 19 18 18 17 15
27 25 24 23 19 3 1 2 5 9 9 6 11 11 10 2 2 1 2 4 2 2 1 1 2 4 2 4 3 6 5 4 1 2 7 5 7 0 1 5 5 5 5 5 9 6 2 2 11 9 10 11 6 6 9 11 11 4 6 5 5 3 1 1 2 2 2 8 12 8 8 8 9 7 9 10 11 15 12 9 11 13 14 16 17 18 17 16
25 25 22 21 6 6 5 6 7 6 8 8 11 10 1 1 2 3 6 6 3 2 4 4 1 2 2 2 2 3 6 3 5 5 5 1 5 1 2 4 3 2 1 4 9 9 3 2 4 3 9 6 6 4 5 9 7 5 3 4 0 6 2 1 1 2 5 12 5 8 8 10 11 5 6 10 10 17 17 18 19 19 20 20 19 18 19 19
24 25 27 15 8 2 1 8 12 10 9 10 8 7 1 4 3 7 7 4 0 2 4 4 2 2 4 2 4 1 4 0 4 4 8 9 11 11 11 12 11 9 10 11 11 4 8 7 2 3 6 13 6 8 6 5 5 7 4 5 9 3 1 6 4 7 12 9 2 7 7 1 19 4 7 11 12 13 17 18 19 21 22 22 21 21 19 18
23 24 28 11 6 1 5 8 9 10 8 8 5 2 1 3 6 5 5 3 1 4 2 3 4 6 4 4 3 6 3 5 2 5 5 5 9 11 7 7 8 7 8 9 4 6 5 2 5 4 1 8 11 12 6 6 8 9 11 8 8 7 6 7 3 1 3 5 5 4 6 10 2 5 12 12 15 15 17 18 19 21 23 24 23 20 19 18
23 21 11 12 10 7 8 7 7 8 7 6 3 2 2 2 7 1 4 4 1 2 3 3 10 4 2 2 4 4 1 4 4 3 7 5 7 9 8 3 8 4 4 3 10 9 6 4 12 10 7 9 12 14 12 4 8 10 4 10 8 4 4 5 4 10 9 7 4 2 6 6 6 7 11 15 15 16 16 18 18 19 21 22 22 20 18 17
24 11 9 10 3 5 5 6 6 4 3 5 4 1 6 9 1 2 2 5 4 4 8 10 3 2 4 1 2 3 3 2 7 4 5 8 10 7 10 9 4 5 3 7 3 3 15 9 6 14 6 11 13 9 8 7 5 5 6 6 5 14 7 3 6 3 2 2 3 2 6 5 8 3 3 9 12 13 15 16 17 18 17 17 11 10 15 17
15 9 8 5 4 4 3 5 5 4 2 4 3 3 9 0 1 3 3 4 2 7 14 10 0 1 1 2 2 7 6 3 9 3 1 3 2 7 3 4 8 9 8 10 4 6 3 11 2 2 5 13 15 8 6 11 9 5 9 13 13 8 5 3 3 1 2 3 8 2 4 6 7 5 6 5 8 12 12 15 15 17 19 15 9 12 15 17
10 8 8 7 6 4 5 5 7 3 1 3 2 5 1 4 2 2 6 7 8 9 5 6 4 2 3 2 2 7 8 4 7 4 1 1 3 7 3 5 5 6 7 7 3 3 10 5 2 7 6 9 6 12 7 10 7 6 9 8 4 2 4 6 6 2 3 6 7 1 7 4 3 10 3 4 8 12 11 14 16 17 18 12 13 13 15 18
11 8 6 4 6 5 8 8 5 1 2 3 3 7 2 3 4 8 4 10 11 5 2 2 5 3 1 3 3 8 9 3 8 5 3 2 3 3 6 6 2 2 6 7 5 4 4 6 4 8 12 8 2 6 4 6 9 11 9 7 10 4 9 2 3 10 5 7 3 3 2 5 8 6 1 6 7 11 11 11 11 14 13 13 14 15 16 16
4 3 6 5 4 9 11 11 1 1 1 1 2 3 2 4 5 8 9 8 5 7 5 3 2 1 3 3 2 3 5 3 4 3 4 2 1 6 9 5 6 12 12 6 8 1 2 6 4 3 8 6 6 8 10 9 6 1 6 9 3 6 3 7 9 3 4 6 0 6 1 9 6 6 8 11 12 12 13 11 13 16 16 15 15 15 16 14
7 5 4 3 8 12 14 6 4 3 3 1 1 2 4 8 8 9 9 8 3 5 2 5 3 5 5 2 7 4 1 2 1 2 1 2 4 4 11 9 5 14 11 8 2 2 4 3 9 2 2 5 7 6 12 11 12 7 4 6 1 1 2 5 2 8 6 3 5 2 7 4 6 7 9 11 12 13 13 14 13 14 15 17 18 18 15 16
4 2 7 5 13 12 12 4 6 4 1 2 2 6 8 5 9 8 8 8 3 5 6 6 7 5 3 8 8 2 2 2 2 3 2 4 4 2 9 8 8 10 9 5 6 2 4 4 10 1 3 7 2 8 14 14 12 10 11 10 9 8 5 8 9 2 4 6 5 3 13 2 6 4 10 11 11 13 14 13 13 12 13 15 18 18 16 14
5 5 6 11 16 11 7 6 5 3 2 5 7 8 7 9 8 9 9 5 5 3 3 4 6 5 3 4 7 5 4 4 4 4 4 4 7 5 7 11 10 8 5 4 5 2 2 2 4 12 8 5 6 10 14 17 14 11 11 10 10 4 5 4 7 8 0 5 3 3 3 12 7 8 10 10 9 10 11 12 13 12 13 13 14 13 10 12
4 5 14 15 11 5 3 4 4 6 4 5 11 8 7 5 7 8 8 4 8 4 3 3 2 4 2 2 2 2 0 1 1 3 2 4 5 6 5 13 12 10 7 6 7 3 10 2 1 6 3 2 4 4 5 4 9 10 8 6 10 12 12 12 7 6 7 1 4 4 9 5 4 6 10 11 9 8 6 7 13 12 10 11 13 10 9 10
5 6 6 5 8 5 5 7 6 7 6 8 8 10 8 4 6 9 6 10 5 6 4 3 4 2 5 4 2 3 4 0 4 5 3 3 3 5 12 12 11 6 7 5 4 9 2 3 1 2 2 4 5 4 5 1 2 5 9 10 11 11 13 5 5 2 4 10 9 6 18 2 2 1 4 4 4 5 9 9 9 11 8 8 9 8 7 8
5 3 5 6 5 6 6 3 4 5 7 9 10 10 9 5 5 4 8 10 8 5 7 4 5 11 3 3 2 4 4 6 3 2 3 1 5 3 10 12 9 4 4 7 9 4 2 4 1 8 13 10 11 12 9 8 7 1 3 10 14 17 14 7 14 5 10 5 8 9 8 5 5 3 4 6 5 6 9 7 4 6 8 7 6 5 7 7
4 6 4 4 2 4 4 3 6 6 6 9 11 6 6 8 8 4 5 8 8 13 7 8 7 5 9 10 6 5 4 4 4 3 4 5 6 2 8 11 7 4 11 13 12 4 1 2 2 2 3 6 2 3 5 1 5 11 7 9 12 14 16 14 4 6 15 5 10 10 5 3 3 5 5 6 5 8 9 7 8 8 9 8 5 6 9 11
3 1 5 7 5 2 3 2 5 5 5 7 4 4 8 8 8 7 6 3 8 10 10 6 7 10 9 10 7 6 1 8 6 2 2 6 5 5 7 8 5 7 17 8 13 2 2 2 3 1 4 4 3 7 10 7 8 8 9 13 10 12 14 17 16 17 6 6 12 10 7 6 7 5 6 6 6 5 7 7 7 7 7 4 2 3 5 5
1 1 2 1 2 4 9 5 8 7 6 5 4 3 7 9 9 7 7 6 9 6 6 6 7 9 10 7 8 2 2 2 2 1 4 3 7 10 7 6 1 7 12 5 4 2 1 1 4 1 5 6 7 11 11 9 6 7 10 13 14 14 13 20 20 11 11 14 20 7 6 7 6 9 10 11 10 10 11 11 6 5 4 5 6 6 8 10
2 2 3 2 1 3 4 10 12 8 8 4 4 3 6 8 9 7 6 8 9 5 4 4 8 10 10 9 5 3 3 4 2 3 4 5 7 6 6 5 3 7 9 7 5 1 0 4 3 3 9 9 9 9 9 8 5 7 10 12 17 16 20 20 17 14 16 15 13 7 12 12 9 9 10 10 9 9 4 1 1 1 6 7 5 5 7 9
2 1 3 4 4 6 6 5 4 6 7 7 3 4 5 7 10 11 6 4 8 8 5 4 8 12 11 8 5 5 4 3 5 4 3 6 7 1 4 3 4 4 8 5 3 3 5 4 9 7 6 8 11 7 4 6 6 9 12 12 15 20 21 20 15 15 13 13 11 5 10 13 8 6 8 8 4 1 1 5 7 6 5 5 5 7 7 8
2 1 3 5 7 4 3 1 4 5 6 3 1 5 7 7 10 11 13 8 9 7 4 8 11 12 9 8 7 10 8 3 5 6 7 6 5 3 2 4 5 9 6 4 1 2 2 4 2 3 6 7 5 6 13 13 12 9 13 17 18 18 21 17 15 11 10 12 9 6 7 9 7 6 8 7 5 5 7 8 6 6 7 6 7 10 9 10
1 2 1 2 4 4 6 2 2 4 4 1 3 6 6 11 10 11 10 4 3 2 7 11 12 10 10 9 9 8 9 11 12 11 7 8 8 9 9 9 8 6 2 2 2 3 2 1 3 3 6 3 10 4 12 13 9 11 18 21 19 11 8 8 11 12 17 13 11 14 16 6 10 7 7 10 8 8 7 5 4 5 4 4 7 9 10 9
Wind_Direction
351 350 348 347 346 345 343 342 341 339 335 333 332 331 328 325 323 320 320 319 318 317 319 319 319 317 320 322 324 325 328 326 316 289 203 244 215 196 190 106 148 173 138 116 119 125 150 157 144 163 130 152 194 160 192 218 214 141 176 150 256 237 263 236 227 192 215 152 176 169 171 136 138 161 128 95 61 100 126 86 86 47 60 112 126 129 137 142
351 348 347 346 345 344 342 341 338 333 331 331 330 328 324 322 319 319 318 317 317 316 317 318 317 317 320 320 324 326 330 299 283 265 235 250 225 198 208 145 150 154 125 130 150 149 145 171 156 158 137 170 151 197 147 214 184 190 182 165 241 187 232 184 205 224 199 184 191 178 168 159 166 143 179 115 141 143 116 83 96 83 96 107 126 134 141 150
349 348 346 346 344 341 340 336 332 333 332 330 328 326 324 321 320 318 314 315 313 314 314 315 316 316 317 320 319 328 333 305 275 264 265 230 246 229 207 165 157 152 150 153 162 151 158 163 144 152 160 135 196 183 171 196 167 225 175 227 241 216 246 244 241 243 226 136 164 188 180 146 154 141 165 136 155 157 158 145 117 138 140 139 140 143 148 155
349 347 345 343 341 340 337 336 335 333 332 330 326 323 319 318 315 313 312 314 313 313 313 314 313 314 316 317 322 323 294 277 282 252 258 276 303 201 198 169 164 165 144 147 157 155 152 148 150 157 146 196 193 202 179 192 163 178 203 219 237 224 239 252 233 245 245 164 174 177 141 125 173 152 161 140 132 212 212 201 163 171 157 151 152 151 154 160
348 345 343 341 339 338 336 335 334 333 330 327 325 322 320 315 312 310 310 308 308 307 310 312 313 311 316 316 319 17 289 4 267 226 244 40 27 219 168 170 166 160 149 143 134 127 144 151 148 157 151 181 196 188 232 204 200 140 217 228 247 315 267 250 215 191 188 186 163 154 155 183 133 144 164 158 165 195 206 204 207 155 154 153 157 158 158 164
347 344 343 341 339 338 336 335 333 330 329 325 322 319 315 312 308 306 305 302 303 305 306 309 310 311 315 316 313 240 173 308 288 299 156 67 64 148 160 162 159 140 127 139 141 135 133 149 144 172 185 160 199 190 211 204 191 245 238 234 234 242 258 276 285 154 156 112 143 171 187 127 169 181 185 178 189 232 217 181 162 163 160 158 152 153 161 168
345 343 342 341 340 338 336 334 331 329 326 323 320 318 313 308 306 305 303 300 300 300 302 304 308 309 317 316 273 280 194 264 323 235 351 352 76 117 144 146 143 138 134 137 137 139 153 154 166 183 164 206 273 211 239 167 209 235 246 182 237 220 240 264 268 270 192 141 187 173 124 162 167 189 183 202 213 4 132 151 147 146 145 148 155 166 166 170
343 342 341 340 339 337 334 333 330 327 325 321 315 312 310 308 307 302 301 299 299 296 298 299 300 307 320 325 9 293 107 248 242 284 289 73 92 119 120 129 144 140 144 157 155 153 147 159 180 145 198 173 217 177 209 259 196 215 248 231 262 262 256 261 270 276 224 215 176 134 165 188 186 181 145 217 211 100 112 127 140 144 151 158 158 165 165 165
342 341 340 339 338 336 334 332 330 328 323 320 316 314 313 313 312 308 303 299 293 289 287 294 292 289 310 332 234 326 252 241 264 283 135 107 119 124 123 124 162 156 161 153 169 155 145 186 170 168 210 212 231 70 213 155 256 215 238 238 246 246 261 257 264 250 233 223 173 160 194 198 191 88 189 200 132 132 121 127 147 150 154 164 167 167 169 172
342 341 340 339 338 336 335 333 330 326 323 320 318 316 311 308 304 300 297 292 287 285 282 277 278 267 219 181 151 229 267 212 286 18 113 115 121 129 120 141 160 163 140 175 143 155 168 171 172 185 113 226 214 235 191 180 237 184 227 241 249 251 258 263 251 258 220 206 174 187 194 195 188 149 246 165 155 130 135 142 155 160 164 167 167 170 175 174
342 341 339 339 337 336 335 334 330 326 322 320 317 314 309 309 305 300 295 291 285 278 272 261 241 214 171 200 163 235 238 101 32 96 110 124 126 125 133 155 167 162 171 160 166 170 184 158 175 134 321 220 107 240 215 222 222 272 266 285 270 266 258 257 261 262 283 254 184 189 197 165 185 214 217 164 153 146 145 154 160 172 169 169 169 170 173 178
342 341 339 337 336 336 335 334 330 326 323 320 317 313 313 311 305 299 296 292 284 274 255 235 201 189 272 125 214 217 273 112 85 79 105 106 126 171 161 167 172 181 152 163 194 194 174 170 150 151 202 134 233 359 264 231 244 263 265 284 281 319 294 244 239 254 182 247 183 153 75 171 186 221 174 144 146 151 152 161 165 172 176 170 170 169 173 178
340 339 337 336 336 336 335 333 330 325 322 319 317 314 313 310 306 302 298 295 288 259 225 200 181 182 166 267 240 236 273 239 274 314 290 255 256 221 166 174 182 179 189 162 187 205 186 150 161 179 200 130 181 156 227 70 223 352 289 198 310 344 301 274 216 255 203 239 146 130 187 215 213 201 138 149 149 147 150 166 171 169 175 177 174 174 175 175
340 337 336 336 336 335 334 333 327 324 320 318 315 314 314 311 308 303 298 291 251 180 159 158 154 166 168 246 268 235 232 255 283 293 270 143 158 242 147 182 184 188 159 166 52 74 157 180 168 189 66 177 219 305 343 10 23 221 266 121 244 332 266 287 168 295 133 176 161 161 197 226 214 191 165 159 153 158 166 171 175 173 174 181 182 177 179 184
339 338 337 337 336 334 334 332 328 320 320 318 314 315 314 315 309 315 333 123 133 145 139 137 155 134 186 267 271 268 234 126 205 237 175 142 142 103 182 146 181 192 197 174 98 128 132 81 65 49 260 290 289 329 310 335 349 354 359 272 330 169 269 287 287 150 149 176 193 168 244 230 203 185 170 161 164 162 167 173 179 177 177 181 185 182 181 186
339 339 339 338 337 336 333 332 325 322 322 317 317 316 314 312 321 45 71 101 124 132 133 114 201 211 320 295 260 37 80 149 251 239 204 163 172 203 170 157 134 147 151 278 110 103 118 133 166 189 226 18 173 157 252 341 306 356 189 271 280 171 255 352 299 215 196 137 196 185 220 67 208 167 168 168 164 173 167 176 181 183 180 181 186 185 181 177
341 340 340 339 337 336 333 332 327 325 323 320 321 313 321 310 34 85 95 107 116 140 189 119 156 216 180 232 329 183 238 233 236 24 138 200 187 160 121 118 156 167 144 34 125 111 127 130 226 98 236 197 164 143 188 250 258 267 8 218 207 232 280 277 297 324 179 139 195 230 235 247 270 157 170 172 171 172 176 180 183 184 183 181 186 190 185 187
341 339 339 337 337 335 332 330 327 327 325 321 323 308 304 295 241 85 84 83 100 197 271 120 169 212 269 309 277 242 287 294 340 210 162 213 174 145 141 166 116 131 103 97 28 137 178 191 137 209 178 194 164 173 186 222 202 194 223 242 284 275 231 243 284 282 115 202 183 204 229 265 191 167 168 178 177 176 183 181 183 183 183 182 187 193 194 191
341 339 337 337 335 337 333 328 327 328 326 319 313 302 293 289 266 277 117 170 114 353 316 217 157 168 198 251 295 320 306 250 279 205 259 126 168 167 117 88 114 128 143 130 252 152 191 182 106 203 220 189 197 192 207 141 140 185 188 210 181 231 259 212 244 274 168 202 221 196 215 216 158 186 176 175 179 184 189 178 180 188 187 187 187 194 198 199
339 339 338 336 335 334 333 325 326 329 327 327 343 351 2 9 351 336 307 327 227 222 264 202 232 288 308 281 270 246 262 5 254 271 123 150 118 145 172 126 81 97 128 176 138 198 136 186 204 210 210 179 180 202 194 201 181 166 124 174 230 238 278 274 278 267 189 179 221 216 226 197 201 185 184 178 173 186 179 183 188 191 191 191 193 196 200 203
338 338 338 336 336 334 329 327 326 328 324 315 317 28 55 347 353 324 328 282 262 253 245 254 219 231 233 3 19 31 19 312 176 287 241 132 117 130 205 144 131 180 194 158 150 242 142 208 221 205 176 171 190 175 183 197 198 216 235 246 264 226 263 247 259 284 292 182 259 198 205 226 210 195 182 171 177 191 189 189 195 196 196 195 195 198 202 206
338 338 338 337 338 334 330 325 329 326 318 310 5 64 101 64 8 275 322 304 276 229 236 239 240 250 247 252 252 320 42 302 292 255 257 151 185 167 212 174 170 195 161 141 127 142 202 219 212 191 184 173 172 171 173 183 202 196 214 228 260 253 260 292 266 265 288 163 267 193 205 227 207 182 183 184 191 197 194 191 194 190 193 196 199 201 200 187
338 338 338 339 338 334 331 323 328 323 344 13 2 344 75 21 341 295 267 273 275 241 241 242 238 242 249 240 228 152 219 229 241 261 205 160 187 212 151 176 185 174 152 167 191 179 230 247 210 179 165 155 193 173 163 181 181 191 189 187 230 224 181 299 292 330 278 179 241 199 204 275 52 165 197 208 203 205 204 204 204 198 195 197 199 196 192 194
337 339 338 339 337 335 331 323 315 317 356 332 258 197 73 20 335 322 226 247 299 270 203 222 210 234 233 190 189 173 190 227 160 255 192 163 173 159 150 187 175 170 195 190 199 200 201 266 174 158 173 178 193 190 164 168 223 213 196 203 228 208 220 203 257 312 268 302 93 70 15 331 191 173 213 209 206 221 212 209 214 214 218 219 219 216 205 197
336 338 338 338 338 335 329 325 49 353 318 306 192 241 30 9 339 346 12 302 251 275 200 266 176 245 228 117 144 176 211 305 218 220 169 171 163 131 212 149 134 201 198 190 195 218 231 239 127 158 176 176 188 208 199 162 227 240 218 209 221 182 204 281 290 297 340 312 304 150 344 273 240 205 201 186 191 214 206 202 212 209 208 205 209 210 207 210
335 337 337 337 337 339 323 6 337 355 324 310 92 2 360 348 335 331 237 333 299 270 147 276 140 292 130 152 150 153 102 234 217 207 174 184 175 164 108 186 178 197 194 161 196 215 214 165 146 177 171 184 191 212 198 168 211 210 245 191 205 195 183 161 228 103 290 227 279 150 200 263 321 230 217 188 198 208 205 212 213 207 206 206 211 209 205 203
335 338 335 335 338 343 1 342 316 329 3 335 337 331 334 332 323 303 304 305 314 224 155 51 23 242 179 177 151 155 109 260 92 161 194 182 176 177 154 188 158 48 147 141 52 233 142 170 170 170 179 186 198 218 197 167 156 237 190 157 172 179 192 197 180 189 236 271 286 292 162 217 292 263 221 200 197 204 208 215 215 210 207 210 209 209 207 204
334 338 335 332 336 341 230 291 331 334 256 277 301 318 317 325 308 226 78 344 299 215 111 276 210 89 86 190 175 182 203 155 109 224 185 170 161 183 185 187 182 178 167 146 208 53 158 177 182 187 182 191 213 202 138 168 191 213 151 131 155 162 190 186 172 200 221 215 267 257 163 255 244 264 216 180 205 218 219 216 214 212 210 212 212 211 210 207
332 338 336 328 333 319 352 195 295 279 287 303 299 308 317 307 279 150 122 215 250 57 249 70 276 59 28 108 219 245 354 321 71 304 166 144 203 129 207 195 183 177 187 183 201 190 192 182 191 187 184 214 196 157 168 169 213 215 119 99 114 100 134 153 184 183 238 158 241 237 184 219 270 268 156 184 202 213 216 216 215 213 210 210 212 212 210 209
331 335 334 329 330 338 317 245 227 245 291 306 300 303 305 302 109 84 51 233 305 57 34 169 64 299 80 140 258 285 287 303 40 35 171 165 196 37 298 133 142 144 205 229 229 196 205 223 173 175 196 211 181 191 167 189 196 123 156 234 272 301 75 33 122 141 79 238 234 221 198 197 262 227 183 170 210 207 220 235 234 225 221 220 217 211 208 208
329 331 329 329 320 308 315 312 294 312 314 316 308 296 263 39 133 120 215 233 8 298 7 23 70 1 45 268 258 267 252 264 332 135 157 217 164 187 113 85 52 102 133 206 230 230 283 93 144 232 182 194 142 190 210 190 182 139 140 160 224 294 14 256 310 81 221 250 228 210 186 183 236 247 232 209 199 197 199 210 213 214 216 217 213 210 208 206
330 329 324 327 279 276 265 290 304 319 320 318 320 1 38 240 351 196 215 348 307 335 74 296 2 2 302 238 215 211 185 329 184 173 169 192 169 179 195 183 159 174 204 196 215 183 235 223 222 248 202 166 170 175 226 192 162 168 123 122 162 266 168 255 108 230 217 228 244 198 154 313 238 223 202 212 217 207 203 206 209 212 216 217 215 210 206 205
329 329 318 309 286 225 238 248 288 299 318 314 337 33 47 138 232 230 275 346 232 21 305 237 308 318 274 320 254 240 193 204 228 191 171 224 186 200 199 186 186 165 192 192 149 163 260 218 241 239 194 193 158 181 166 208 191 166 183 162 157 183 200 222 230 314 305 280 249 183 162 233 307 254 196 204 208 205 208 213 213 211 213 215 213 208 203 201
327 327 319 305 305 253 258 276 279 299 331 323 50 4 66 219 244 281 240 287 275 1 342 356 314 287 212 238 335 3 273 285 154 223 167 182 189 195 213 237 177 165 93 133 187 178 209 228 233 190 229 170 183 193 188 159 154 192 112 160 182 161 164 205 189 210 223 215 232 224 136 231 209 251 196 197 202 205 209 211 216 219 220 219 215 207 199 199
324 312 292 298 310 272 245 264 280 308 339 358 47 112 195 230 351 295 355 329 347 354 347 314 274 321 317 2 346 43 48 314 17 322 183 163 201 194 193 200 222 153 129 130 242 126 214 223 268 208 199 160 190 197 158 130 131 188 157 91 163 215 136 174 201 159 245 311 296 184 203 196 212 249 285 209 196 204 205 213 217 225 229 227 217 193 199 203
326 333 303 265 295 277 289 307 326 336 312 44 69 227 227 312 264 24 355 330 349 356 320 310 280 47 289 308 355 7 348 41 344 11 338 171 138 195 186 201 201 176 167 196 162 201 112 240 174 155 175 175 194 164 194 151 200 201 130 204 209 129 153 267 288 204 111 5 256 187 289 293 296 322 231 217 201 209 208 215 217 225 230 226 205 203 202 203
336 332 345 319 304 267 311 332 328 321 42 96 107 246 309 310 169 4 6 359 320 309 327 4 305 76 339 324 1 1 337 352 7 9 312 292 98 351 210 231 181 203 218 150 250 193 170 240 254 134 218 243 196 175 176 188 130 124 191 213 81 94 119 155 225 344 226 223 263 130 197 285 214 259 280 184 193 215 207 213 217 223 231 219 214 206 203 202
330 321 280 265 255 290 324 325 335 145 128 105 203 249 48 299 324 357 355 347 340 315 294 26 282 40 347 19 330 5 334 57 339 18 323 290 112 336 1 342 307 207 240 231 197 249 156 270 272 195 193 195 101 147 186 221 163 175 197 165 154 199 197 262 130 236 218 241 281 284 230 242 192 236 193 197 210 220 217 217 218 227 230 223 222 216 212 207
304 303 336 267 298 332 330 325 103 96 70 86 223 300 260 262 347 317 330 333 306 287 294 241 234 343 37 349 325 339 6 15 340 1 19 308 115 8 41 324 317 335 331 297 224 220 168 208 297 260 183 169 162 149 202 205 256 244 92 171 178 124 193 155 196 163 142 253 224 290 226 241 202 207 192 204 204 213 213 210 211 215 217 216 219 217 211 199
350 360 294 269 318 341 330 327 91 57 58 166 262 206 331 322 306 317 324 338 322 348 286 324 350 327 326 282 354 315 328 315 15 293 293 284 88 61 25 347 340 316 322 300 250 146 247 146 240 286 257 123 190 190 204 190 191 195 171 185 204 215 236 143 187 193 199 188 212 233 274 272 250 206 175 205 209 213 206 211 214 216 213 212 218 216 208 200
328 207 278 284 327 342 336 44 38 20 356 281 336 326 340 304 330 314 316 327 322 226 229 280 303 293 323 320 315 5 303 342 359 340 298 314 11 283 13 350 319 333 327 331 78 345 232 178 224 191 182 209 193 188 199 202 192 195 190 203 181 142 141 167 247 349 175 204 228 156 255 264 268 190 186 196 218 212 215 209 217 221 220 214 219 218 206 201
346 350 290 317 316 343 1 55 27 337 6 2 353 333 314 320 310 324 337 328 328 306 246 254 259 258 259 250 254 277 266 273 221 203 228 195 35 57 329 338 346 307 347 52 297 40 322 206 185 229 211 192 206 209 205 204 196 194 176 205 178 169 116 138 211 220 91 251 110 164 263 257 237 191 197 200 210 221 221 207 217 221 221 225 233 233 216 211
345 271 281 290 299 341 41 75 47 23 350 337 328 306 305 322 327 333 321 347 343 305 326 320 314 323 295 360 310 327 111 242 232 212 3 51 87 55 355 356 345 352 12 13 333 29 326 148 250 285 354 305 287 313 323 284 207 204 208 174 168 196 199 215 210 179 186 233 229 247 250 263 264 197 209 206 211 226 239 210 217 225 225 225 229 229 206 208
308 296 311 300 323 341 68 46 5 353 336 321 337 313 311 306 349 344 336 330 324 343 337 299 294 58 309 354 301 314 341 359 31 45 22 7 127 68 22 354 357 11 18 2 356 328 1 302 152 127 249 225 269 336 302 15 162 214 195 204 193 197 206 200 96 89 193 205 189 152 245 233 273 284 246 274 280 256 244 234 216 232 237 224 227 227 216 219
292 245 237 293 335 9 50 70 47 346 343 334 328 322 327 335 346 340 330 320 319 352 319 322 319 308 351 319 353 352 26 45 314 27 33 14 346 21 10 351 334 355 334 345 1 297 216 264 348 207 209 204 202 210 212 220 219 222 253 198 205 198 194 149 219 174 218 235 178 213 246 248 274 321 246 234 244 282 273 264 281 242 249 241 236 204 193 192
352 338 310 323 356 6 65 94 76 12 341 344 337 312 335 317 326 329 343 306 347 352 336 308 342 324 24 3 15 11 342 33 45 319 6 342 355 35 360 321 336 299 347 358 358 340 235 281 166 221 230 224 225 252 245 228 166 213 197 202 213 212 200 203 174 174 218 194 204 227 174 229 247 208 221 234 216 229 259 261 235 235 245 243 221 206 197 196
295 320 321 347 323 90 37 77 32 18 335 327 315 300 319 317 323 335 338 315 355 345 318 310 22 24 4 14 358 340 325 360 327 340 26 20 328 325 307 284 304 352 0 5 358 348 34 347 282 253 239 232 273 285 292 293 284 247 191 214 208 207 210 208 205 221 124 117 244 224 184 182 234 230 231 243 252 255 252 258 272 265 248 249 298 287 274 241
8 320 358 320 325 310 347 343 357 329 297 328 260 278 292 319 342 337 337 335 333 345 340 316 4 13 5 1 333 320 343 352 282 301 3 22 342 331 347 315 202 8 5 8 345 55 145 218 275 18 308 310 282 277 278 282 233 251 240 211 204 207 204 214 219 209 156 207 233 213 153 190 236 227 221 213 203 210 222 229 231 246 254 246 237 217 208 214
232 279 276 354 359 314 305 290 308 308 309 324 276 308 308 334 328 334 345 319 328 322 335 299 333 345 345 343 344 286 332 11 328 9 12 339 357 333 337 337 318 13 13 349 5 311 98 258 249 340 316 313 296 279 283 263 262 255 248 239 220 202 212 214 216 209 201 221 233 170 179 199 207 225 222 231 212 207 220 133 88 227 253 256 266 254 233 227
311 346 311 332 255 280 272 281 285 315 314 331 335 282 321 330 324 328 345 323 316 302 336 328 319 336 328 325 313 292 281 327 323 337 318 14 326 357 301 245 280 355 0 344 338 318 51 294 331 340 334 314 301 305 318 339 310 266 252 235 233 225 219 212 208 214 210 236 227 165 187 213 235 222 233 246 268 333 326 279 246 234 259 273 265 252 240 237
250 223 290 304 305 283 277 267 312 316 307 304 210 314 337 326 325 324 307 289 260 266 18 313 309 316 309 301 286 280 289 298 295 281 298 282 263 280 355 291 354 326 341 314 346 328 32 264 12 10 356 313 300 356 330 324 312 265 249 239 229 226 226 218 211 197 187 211 213 196 221 233 261 260 256 268 288 267 245 252 272 268 252 246 242 249 239 227
291 232 213 271 285 308 309 285 274 301 285 281 317 327 326 311 311 319 318 280 195 272 332 312 311 308 297 292 286 287 317 316 302 289 269 264 254 262 251 257 269 259 290 276 302 290 191 288 345 352 346 257 283 345 324 315 325 298 248 230 228 228 244 247 226 193 202 186 201 211 227 193 220 220 228 252 236 250 253 256 274 303 278 241 245 247 245 245